• In Belarus
  • List of Countries
  • For 7 days
  • Water Temperature
  • Satellite Maps
  • Weather Map
  • Weather Widgets
  • user-avatar
    Login

    Hourly Weather Baku

    Today, 23 November, Thursday

    Time Temperature Precipitation Wind Pressure Humidity
    00:00 +7°C° 0.1 mm 12 mps 759 mmHg 75%
    01:00 +7°C° 0.2 mm 12 mps 759 mmHg 76%
    02:00 +7°C° 0.2 mm 11 mps 759 mmHg 76%
    03:00 +6°C° 0.2 mm 10 mps 760 mmHg 77%
    04:00 +6°C° 0.2 mm 9 mps 760 mmHg 77%
    05:00 +6°C° 0.2 mm 9 mps 760 mmHg 78%
    06:00 +6°C° 0.2 mm 8 mps 760 mmHg 78%
    07:00 +6°C° 0.2 mm 7 mps 760 mmHg 78%
    08:00 +7°C° 0.2 mm 6 mps 760 mmHg 77%
    09:00 +6°C° 0 mm 7 mps 760 mmHg 78%
    10:00 +7°C° 0.2 mm 6 mps 760 mmHg 77%
    11:00 +7°C° 0.2 mm 4 mps 760 mmHg 77%
    12:00 +8°C° 0.2 mm 3 mps 760 mmHg 76%
    13:00 +9°C° 0 mm 3 mps 760 mmHg 73%
    14:00 +9°C° 0 mm 3 mps 760 mmHg 69%
    15:00 +10°C° 0 mm 2 mps 759 mmHg 65%
    16:00 +10°C° 0 mm 3 mps 760 mmHg 64%
    17:00 +10°C° 0 mm 4 mps 760 mmHg 62%
    18:00 +9°C° 0 mm 5 mps 760 mmHg 60%
    19:00 +9°C° 0 mm 5 mps 760 mmHg 56%
    20:00 +9°C° 0 mm 5 mps 761 mmHg 52%
    21:00 +8°C° 0 mm 6 mps 761 mmHg 48%
    22:00 +8°C° 0 mm 6 mps 761 mmHg 54%
    23:00 +8°C° 0 mm 6 mps 761 mmHg 60%

    Tomorrow, 24 November, Friday

    Time Temperature Precipitation Wind Pressure Humidity
    00:00 +8°C° 0 mm 6 mps 762 mmHg 65%
    01:00 +8°C° 0 mm 6 mps 762 mmHg 69%
    02:00 +8°C° 0 mm 6 mps 762 mmHg 72%
    03:00 +8°C° 0 mm 6 mps 762 mmHg 75%
    04:00 +8°C° 0.2 mm 6 mps 763 mmHg 76%
    05:00 +8°C° 0.2 mm 6 mps 763 mmHg 77%
    06:00 +8°C° 0.2 mm 6 mps 763 mmHg 78%
    07:00 +8°C° 0.3 mm 6 mps 763 mmHg 76%
    08:00 +8°C° 0.3 mm 6 mps 764 mmHg 75%
    09:00 +8°C° 0.3 mm 6 mps 764 mmHg 74%
    10:00 +8°C° 0.3 mm 6 mps 764 mmHg 74%
    11:00 +9°C° 0.3 mm 6 mps 764 mmHg 73%
    12:00 +9°C° 0.3 mm 6 mps 764 mmHg 72%
    13:00 +9°C° 0.2 mm 6 mps 764 mmHg 71%
    14:00 +9°C° 0.2 mm 6 mps 764 mmHg 70%
    15:00 +9°C° 0.2 mm 7 mps 764 mmHg 69%
    16:00 +8°C° 0.1 mm 7 mps 764 mmHg 68%
    17:00 +8°C° 0.1 mm 7 mps 764 mmHg 66%
    18:00 +8°C° 0.1 mm 7 mps 765 mmHg 64%
    19:00 +8°C° 0.1 mm 7 mps 765 mmHg 60%
    20:00 +8°C° 0.1 mm 6 mps 765 mmHg 56%
    21:00 +8°C° 0.1 mm 6 mps 765 mmHg 52%
    22:00 +7°C° 0 mm 6 mps 765 mmHg 53%
    23:00 +7°C° 0 mm 6 mps 765 mmHg 53%

    Day after tomorrow, 25 November, Saturday

    Time Temperature Precipitation Wind Pressure Humidity
    00:00 +7°C° 0 mm 6 mps 765 mmHg 54%
    01:00 +6°C° 0 mm 5 mps 765 mmHg 54%
    02:00 +6°C° 0 mm 5 mps 765 mmHg 55%
    03:00 +6°C° 0 mm 5 mps 765 mmHg 55%
    04:00 +6°C° 0 mm 5 mps 765 mmHg 52%
    05:00 +6°C° 0 mm 4 mps 765 mmHg 50%
    06:00 +6°C° 0 mm 4 mps 765 mmHg 47%
    07:00 +6°C° 0.1 mm 5 mps 766 mmHg 46%
    08:00 +5°C° 0.1 mm 6 mps 766 mmHg 46%
    09:00 +6°C° 0.1 mm 7 mps 767 mmHg 45%
    10:00 +6°C° 0.9 mm 9 mps 767 mmHg 53%
    11:00 +6°C° 0.9 mm 11 mps 767 mmHg 60%
    12:00 +5°C° 0.9 mm 13 mps 768 mmHg 67%
    13:00 +5°C° 0.3 mm 13 mps 768 mmHg 66%
    14:00 +5°C° 0.3 mm 12 mps 769 mmHg 66%
    15:00 +6°C° 0.3 mm 11 mps 769 mmHg 65%
    16:00 +6°C° 0.1 mm 11 mps 770 mmHg 66%
    17:00 +6°C° 0.1 mm 11 mps 771 mmHg 67%
    18:00 +5°C° 0.1 mm 10 mps 772 mmHg 67%
    19:00 +5°C° 0.2 mm 10 mps 772 mmHg 68%
    20:00 +5°C° 0.2 mm 9 mps 773 mmHg 68%
    21:00 +5°C° 0.2 mm 9 mps 773 mmHg 69%
    22:00 +5°C° 0 mm 8 mps 773 mmHg 68%
    23:00 +5°C° 0 mm 6 mps 773 mmHg 67%

    26 November, Sunday

    Time Temperature Precipitation Wind Pressure Humidity
    00:00 +6°C° 0 mm 5 mps 773 mmHg 66%
    01:00 +6°C° 0 mm 4 mps 773 mmHg 66%
    02:00 +7°C° 0 mm 3 mps 773 mmHg 66%
    03:00 +7°C° 0 mm 2 mps 773 mmHg 66%
    04:00 +7°C° 0 mm 2 mps 773 mmHg 64%
    05:00 +7°C° 0 mm 2 mps 773 mmHg 62%
    06:00 +7°C° 0 mm 2 mps 773 mmHg 60%
    07:00 +7°C° 0 mm 2 mps 773 mmHg 59%
    08:00 +8°C° 0 mm 3 mps 773 mmHg 58%
    09:00 +7°C° 0 mm 4 mps 773 mmHg 57%
    10:00 +8°C° 0 mm 4 mps 772 mmHg 58%
    11:00 +9°C° 0 mm 5 mps 771 mmHg 58%
    12:00 +9°C° 0 mm 5 mps 770 mmHg 58%
    13:00 +9°C° 0 mm 6 mps 770 mmHg 59%
    14:00 +9°C° 0 mm 6 mps 769 mmHg 59%
    15:00 +10°C° 0 mm 6 mps 769 mmHg 59%
    16:00 +9°C° 0.1 mm 6 mps 769 mmHg 59%
    17:00 +9°C° 0.1 mm 6 mps 769 mmHg 59%
    18:00 +8°C° 0.1 mm 5 mps 769 mmHg 59%
    19:00 +8°C° 0.1 mm 5 mps 769 mmHg 56%
    20:00 +8°C° 0.1 mm 5 mps 769 mmHg 53%
    21:00 +7°C° 0.1 mm 5 mps 769 mmHg 50%
    22:00 +7°C° 0 mm 5 mps 769 mmHg 49%
    23:00 +7°C° 0 mm 5 mps 768 mmHg 48%

    27 November, Monday

    Time Temperature Precipitation Wind Pressure Humidity
    00:00 +7°C° 0 mm 5 mps 768 mmHg 47%
    01:00 +7°C° 0 mm 5 mps 768 mmHg 45%
    02:00 +7°C° 0 mm 5 mps 767 mmHg 43%
    03:00 +7°C° 0 mm 5 mps 767 mmHg 42%
    04:00 +7°C° 0 mm 4 mps 767 mmHg 39%
    05:00 +7°C° 0 mm 4 mps 767 mmHg 37%
    06:00 +7°C° 0 mm 4 mps 767 mmHg 35%
    07:00 +8°C° 0.1 mm 3 mps 767 mmHg 33%
    08:00 +9°C° 0.1 mm 3 mps 767 mmHg 31%
    09:00 +9°C° 0.1 mm 3 mps 767 mmHg 28%
    10:00 +10°C° 0 mm 3 mps 767 mmHg 28%
    11:00 +11°C° 0 mm 3 mps 767 mmHg 27%
    12:00 +12°C° 0 mm 3 mps 766 mmHg 26%
    13:00 +12°C° 0 mm 3 mps 766 mmHg 29%
    14:00 +12°C° 0 mm 3 mps 766 mmHg 32%
    15:00 +12°C° 0 mm 3 mps 765 mmHg 35%
    16:00 +12°C° 0 mm 4 mps 765 mmHg 38%
    17:00 +11°C° 0 mm 4 mps 765 mmHg 41%
    18:00 +11°C° 0 mm 4 mps 765 mmHg 44%
    19:00 +10°C° 0.1 mm 5 mps 765 mmHg 45%
    20:00 +10°C° 0.1 mm 5 mps 765 mmHg 45%
    21:00 +10°C° 0.1 mm 5 mps 765 mmHg 46%
    22:00 +10°C° 0.1 mm 5 mps 765 mmHg 47%
    23:00 +10°C° 0.1 mm 5 mps 765 mmHg 48%

    28 November, Tuesday

    Time Temperature Precipitation Wind Pressure Humidity
    00:00 +10°C° 0.1 mm 5 mps 764 mmHg 49%
    01:00 +10°C° 0.1 mm 5 mps 764 mmHg 51%
    02:00 +10°C° 0.1 mm 5 mps 764 mmHg 53%
    03:00 +10°C° 0.1 mm 5 mps 764 mmHg 55%
    04:00 +10°C° 0.1 mm 5 mps 764 mmHg 55%
    05:00 +11°C° 0.1 mm 4 mps 764 mmHg 54%
    06:00 +11°C° 0.1 mm 4 mps 764 mmHg 53%
    07:00 +11°C° 0.1 mm 4 mps 764 mmHg 51%
    08:00 +11°C° 0.1 mm 4 mps 764 mmHg 48%
    09:00 +11°C° 0.1 mm 3 mps 765 mmHg 46%
    10:00 +11°C° 0 mm 3 mps 764 mmHg 48%
    11:00 +12°C° 0 mm 3 mps 764 mmHg 49%
    12:00 +12°C° 0 mm 3 mps 764 mmHg 51%
    13:00 +12°C° 0 mm 3 mps 763 mmHg 54%
    14:00 +12°C° 0 mm 3 mps 763 mmHg 57%
    15:00 +12°C° 0 mm 3 mps 763 mmHg 60%
    16:00 +11°C° 0 mm 3 mps 764 mmHg 62%
    17:00 +11°C° 0 mm 4 mps 764 mmHg 65%
    18:00 +9°C° 0 mm 5 mps 764 mmHg 67%
    19:00 +9°C° 0 mm 5 mps 764 mmHg 65%
    20:00 +9°C° 0 mm 6 mps 764 mmHg 62%
    21:00 +9°C° 0 mm 6 mps 764 mmHg 60%
    22:00 +9°C° 0 mm 6 mps 765 mmHg 59%
    23:00 +9°C° 0 mm 6 mps 765 mmHg 59%
    Show more